Location: Newark
(52.4787°S, 179.0532°W)
Time: 18:10:50
(UTC+00:00)

Envisat - Pass Details

Date: 30 October 2019
Orbit: 764 x 766 km, 98.1° (Epoch: 20 November)

Event Time Altitude Azimuth Distance (km) Brightness Sun altitude
Rises 09:08:12 0° 176° (S) 3,278 7.0 -16.2°
Reaches altitude 10° 09:11:37 10° 199° (SSW) 2,344 6.7 -16.5°
Maximum altitude 09:14:12 14° 230° (SW) 2,065 6.4 -16.7°
Drops below altitude 10° 09:16:47 10° 260° (W) 2,333 6.2 -17.0°
Sets 09:20:10 0° 284° (WNW) 3,252 6.5 -17.3°
